Location: Smoky Mountain Stargaze
(35.4252°N, 83.3329°W)
Time: 12:06:42
(UTC-05:00)

Amateur Radio Satellites - All Passes

Search period start: 23 November 2014 11:36
Search period end: 24 November 2014 11:36
Location: Smoky Mountain Stargaze, 35.4252°N, 83.3329°W

Satellite Date Start Highest point End Downlink Frequencies (MHz)
Time Altitude Azimuth
CUBEBUG 2 23 Nov 11:38:44 11:41:43 19° 291° (WNW) 11:44:46 437.445
Oscar 11 23 Nov 11:44:53 11:45:37 10° 295° (WNW) 11:46:20 145.826/435.025
UWE-3 23 Nov 11:45:26 11:48:22 19° 291° (WNW) 11:51:20 435.000/436.395/437.385
CINEMA 3 23 Nov 11:46:23 11:47:00 10° 294° (WNW) 11:47:37 145.822/145.860
POLYITAN 1 23 Nov 11:53:09 11:55:36 15° 266° (W) 11:58:03 437.675
QB50P2 23 Nov 11:56:44 11:58:54 14° 267° (W) 12:01:04 145.880/145.840
ESTCUBE 1 23 Nov 12:04:39 12:09:09 63° 285° (WNW) 12:13:37 437.505/2401.250
DUCHIFAT 1 23 Nov 12:05:52 12:07:02 11° 268° (W) 12:08:12 145.980
VELOX 1 23 Nov 12:18:17 12:21:05 17° 293° (WNW) 12:23:53 145.980
SWISSCUBE 23 Nov 12:43:33 12:44:51 11° 91° (E) 12:46:10 437.505
Oscar 19 23 Nov 12:48:51 12:53:36 41° 71° (ENE) 12:58:22 437.125/150
TISAT 1 23 Nov 13:05:11 13:09:16 51° 286° (WNW) 13:13:19 437.305
SPROUT 23 Nov 13:05:33 13:09:46 60° 285° (WNW) 13:13:57 437.525
CUBEBUG 1 23 Nov 13:07:24 13:09:30 13° 294° (WNW) 13:11:35 437.445
SO-50 23 Nov 13:11:17 13:15:36 30° 53° (NE) 13:19:55 436.795
BEESAT 23 Nov 13:13:07 13:16:54 23° 96° (E) 13:20:39 436.000
AUBIESAT-1 23 Nov 13:21:37 13:26:12 38° 102° (ESE) 13:30:39 437.475
M-CUBED/EXP-1 PRIME 23 Nov 13:24:36 13:29:20 45° 103° (ESE) 13:33:58 437.505
ITAMSAT 1 23 Nov 13:35:06 13:40:02 44° 72° (ENE) 13:44:59 435.822/435.867
YUBILEINY 23 Nov 13:44:43 13:52:50 41° 76° (ENE) 14:00:51 435.215
Gurwin Techsat 1B 23 Nov 13:50:21 13:55:06 35° 70° (ENE) 13:59:51 435.225
ITUPSAT 1 23 Nov 14:06:08 14:10:58 86° 103° (ESE) 14:15:45 437.325
CUSAT 1 23 Nov 14:06:40 14:09:21 30° 280° (W) 14:11:44 437.405
SWISSCUBE 23 Nov 14:18:20 14:23:05 63° 286° (WNW) 14:27:48 437.505
DANDE 23 Nov 14:19:43 14:22:23 25° 280° (W) 14:24:43 436.750
VERMONT LUNAR 23 Nov 14:26:06 14:28:17 15° 142° (SE) 14:30:27 437.305
KKS-1 23 Nov 14:26:57 14:30:44 27° 97° (E) 14:34:31 437.445
Oscar 19 23 Nov 14:29:23 14:33:03 20° 266° (W) 14:36:44 437.125/150
AO-7 23 Nov 14:34:09 14:40:40 27° 59° (ENE) 14:47:11 29.400- 29.500
HORYU 2 23 Nov 14:37:28 14:41:37 41° 72° (ENE) 14:45:46 437.375
BEESAT 23 Nov 14:50:30 14:54:43 31° 290° (WNW) 14:58:54 436.000
SO-50 23 Nov 14:51:52 14:56:04 29° 248° (WSW) 15:00:15 436.795
AUBIESAT-1 23 Nov 14:57:06 15:00:53 23° 297° (WNW) 15:04:37 437.475
M-CUBED/EXP-1 PRIME 23 Nov 15:00:29 15:03:59 20° 298° (WNW) 15:07:27 437.505
ITAMSAT 1 23 Nov 15:16:03 15:19:40 19° 266° (W) 15:23:19 435.822/435.867
STARS 23 Nov 15:28:21 15:32:45 85° 284° (WNW) 15:37:08 437.465
Gurwin Techsat 1B 23 Nov 15:30:44 15:35:03 25° 264° (W) 15:39:23 435.225
MaSat-1 23 Nov 15:32:38 15:35:33 33° 110° (ESE) 15:38:13 437.345
PHONESAT 2.4 23 Nov 15:40:12 15:43:42 40° 150° (SSE) 15:47:12 2401.200-2431.200
YUBILEINY 23 Nov 15:41:41 15:49:26 38° 273° (W) 15:57:09 435.215
JAS-2 23 Nov 15:48:37 15:54:29 25° 62° (ENE) 16:00:31 435.910
RS-15 23 Nov 15:49:21 15:59:16 40° 107° (ESE) 16:09:02 29.354- 29.394
VERMONT LUNAR 23 Nov 16:02:46 16:06:23 81° 156° (SSE) 16:10:02 437.305
KKS-1 23 Nov 16:03:46 16:07:13 23° 291° (WNW) 16:10:41 437.445
O/OREOS (USA 219) 23 Nov 16:14:52 16:18:42 27° 63° (ENE) 16:22:32 437.305
HORYU 2 23 Nov 16:15:56 16:18:26 15° 266° (W) 16:20:58 437.375
AO-7 23 Nov 16:24:37 16:32:47 64° 256° (WSW) 16:41:02 29.400- 29.500
CUTE-I 23 Nov 16:38:00 16:39:37 11° 61° (ENE) 16:41:15 437.470
MOZHAYETS 4 23 Nov 16:47:48 16:51:38 25° 96° (E) 16:55:27
PHONESAT 2.4 23 Nov 17:18:49 17:22:28 53° 345° (NNW) 17:26:07 2401.200-2431.200
JAS-2 23 Nov 17:31:25 17:38:45 65° 259° (W) 17:46:35 435.910
Cubesat XI-IV 23 Nov 17:31:50 17:36:48 40° 71° (ENE) 17:41:46 437.490
VERMONT LUNAR 23 Nov 17:41:40 17:45:05 38° 352° (N) 17:48:31 437.305
O/OREOS (USA 219) 23 Nov 17:54:27 17:57:55 23° 258° (WSW) 18:01:24 437.305
RS-15 23 Nov 18:00:38 18:11:13 52° 307° (NW) 18:21:51 29.354- 29.394
CUTE-I 23 Nov 18:13:33 18:18:55 83° 257° (WSW) 18:24:19 437.470
CUBESAT XI-V 23 Nov 18:22:00 18:25:03 17° 93° (E) 18:28:04 437.345
MOZHAYETS 4 23 Nov 18:24:51 18:28:46 27° 290° (WNW) 18:32:41
PHONESAT 2.4 23 Nov 18:58:12 19:01:40 36° 2° (N) 19:05:08 2401.200-2431.200
PRISM 23 Nov 18:59:08 19:03:19 58° 285° (WNW) 19:07:27 437.425
Cubesat XI-IV 23 Nov 19:12:51 19:16:57 22° 265° (W) 19:21:05 437.490
VERMONT LUNAR 23 Nov 19:20:33 19:24:01 41° 10° (N) 19:27:29 437.305
STRAND 1 23 Nov 19:24:07 19:29:15 77° 103° (ESE) 19:34:19 437.568
GONETS M04 23 Nov 19:34:17 19:42:42 46° 77° (ENE) 19:51:00
HO-68 23 Nov 19:45:17 19:51:33 34° 65° (ENE) 19:57:51 435.675
AIST 1 23 Nov 19:48:31 19:52:25 32° 91° (E) 19:56:21
AAUSAT CUBESAT 2 23 Nov 19:55:32 19:56:56 12° 66° (ENE) 19:58:20 437.432
CANX-2 23 Nov 19:55:37 19:58:45 21° 69° (ENE) 20:01:55 2200.000
CUBESAT XI-V 23 Nov 19:58:17 20:02:37 39° 288° (WNW) 20:06:54 437.345
COMPASS 1 23 Nov 20:07:19 20:10:12 19° 69° (ENE) 20:13:06 437.405
DOVE 4 23 Nov 20:11:34 20:14:27 17° 69° (ENE) 20:17:16 437.250
RS-15 23 Nov 20:20:45 20:27:01 16° 337° (NNW) 20:33:22 29.354- 29.394
PCSat 23 Nov 20:21:37 20:27:00 76° 114° (ESE) 20:32:25 145.827
CUTE 1.7 & AOD 2 23 Nov 20:29:35 20:33:38 48° 74° (ENE) 20:37:42 437.475
PHONESAT 2.4 23 Nov 20:37:06 20:40:49 68° 19° (NNE) 20:44:30 2401.200-2431.200
GOMX 1 23 Nov 20:39:32 20:44:15 46° 74° (ENE) 20:48:40 467.674
BEESAT 3 23 Nov 20:42:37 20:46:35 53° 116° (ESE) 20:50:37 437.485
UKube-1 23 Nov 20:45:11 20:48:31 22° 69° (ENE) 20:51:51 .
BRITE-PL 23 Nov 20:54:23 20:59:37 87° 257° (WSW) 21:04:27 437.365/2234.400
BEESAT 2 23 Nov 20:55:47 20:59:50 69° 117° (ESE) 21:03:59 435.950
Oscar 11 23 Nov 20:57:55 21:01:43 32° 72° (ENE) 21:05:33 145.826/435.025
CUBEBUG 2 23 Nov 20:58:09 21:01:07 18° 69° (ENE) 21:04:03 437.445
VERMONT LUNAR 23 Nov 20:59:03 21:02:39 67° 206° (SSW) 21:06:15 437.305
UWE-3 23 Nov 21:03:53 21:06:48 18° 69° (ENE) 21:09:42 435.000/436.395/437.385
CINEMA 3 23 Nov 21:05:23 21:09:30 37° 73° (ENE) 21:13:29 145.822/145.860
SEEDS 23 Nov 21:05:51 21:10:00 70° 259° (W) 21:14:12 437.485
STRAND 1 23 Nov 21:06:12 21:07:43 11° 298° (WNW) 21:09:15 437.568
DX 1 23 Nov 21:17:02 21:21:17 52° 74° (ENE) 21:25:34 434.975-435.025
AIST 2 23 Nov 21:18:39 21:22:45 57° 116° (ESE) 21:26:57 435.215
AIST 1 23 Nov 21:27:13 21:30:09 17° 286° (WNW) 21:33:06
AAUSAT CUBESAT 2 23 Nov 21:28:07 21:32:08 50° 260° (W) 21:36:11 437.432
CANX-2 23 Nov 21:30:57 21:34:31 27° 264° (W) 21:38:07 2200.000
GONETS M04 23 Nov 21:31:34 21:39:10 34° 275° (W) 21:46:44
HO-68 23 Nov 21:32:22 21:39:03 41° 261° (W) 21:45:47 435.675
VELOX 1 23 Nov 21:36:12 21:39:50 25° 69° (ENE) 21:43:29 145.980
COMPASS 1 23 Nov 21:42:04 21:45:42 29° 263° (W) 21:49:23 437.405
ZACube-1 23 Nov 21:43:29 21:47:32 45° 74° (ENE) 21:51:32 437.345
DELFI C3 23 Nov 21:46:12 21:50:14 77° 258° (WSW) 21:54:20 145.870
HUMSAT D 23 Nov 21:46:30 21:50:03 28° 71° (ENE) 21:53:34 437.325/437.525
DOVE 4 23 Nov 21:47:26 21:51:56 41° 261° (W) 21:56:13 437.250
50 SAT 23 Nov 21:52:34 21:55:59 27° 71° (ENE) 21:59:22 437.505
AISAT 23 Nov 22:00:04 22:04:23 47° 73° (ENE) 22:08:41 437.250
PCSat 23 Nov 22:07:55 22:11:00 15° 312° (NW) 22:14:05 145.827
CUTE 1.7 & AOD 2 23 Nov 22:08:28 22:09:48 11° 268° (W) 22:11:08 437.475
TIGRISAT 23 Nov 22:14:45 22:17:30 16° 94° (E) 22:20:16 435.000
PHONESAT 2.4 23 Nov 22:16:16 22:19:26 26° 214° (SSW) 22:22:34 2401.200-2431.200
DUCHIFAT 1 23 Nov 22:18:27 22:18:57 10° 92° (E) 22:19:27 145.980
FUNcube-1 23 Nov 22:19:05 22:23:18 66° 259° (W) 22:27:29 145.935
GOMX 1 23 Nov 22:19:37 22:22:28 15° 266° (W) 22:25:15 467.674
UKube-1 23 Nov 22:20:46 22:24:30 28° 263° (W) 22:28:15 .
BEESAT 3 23 Nov 22:22:56 22:25:08 14° 312° (NW) 22:27:21 437.485
CUBEBUG 1 23 Nov 22:23:06 22:26:53 28° 71° (ENE) 22:30:41 437.445
UNISAT 6 23 Nov 22:26:19 22:29:49 22° 96° (E) 22:33:22 437.425
CUBEBUG 2 23 Nov 22:33:46 22:37:37 31° 262° (W) 22:41:24 437.445
Oscar 11 23 Nov 22:35:01 22:37:56 18° 266° (W) 22:40:52 145.826/435.025
NANOSAT C BR1 23 Nov 22:35:14 22:38:07 18° 95° (E) 22:40:59 145.865
BEESAT 2 23 Nov 22:37:08 22:38:36 12° 314° (NW) 22:40:04 435.950
VERMONT LUNAR 23 Nov 22:39:12 22:40:41 12° 219° (SW) 22:42:10 437.305
UWE-3 23 Nov 22:39:19 22:43:08 31° 262° (W) 22:46:54 435.000/436.395/437.385
RS-15 23 Nov 22:41:16 22:46:22 14° 16° (NNE) 22:51:31 29.354- 29.394
CINEMA 3 23 Nov 22:44:02 22:46:47 16° 266° (W) 22:49:30 145.822/145.860
QB50P1 23 Nov 22:44:22 22:47:44 23° 96° (E) 22:51:05 145.935-145.965
ANTELSAT 23 Nov 22:54:06 22:58:24 47° 100° (E) 23:02:47 437.575/2403.000
DX 1 23 Nov 22:56:23 22:57:48 11° 268° (W) 22:59:12 434.975-435.025
AIST 2 23 Nov 22:59:32 23:01:45 14° 313° (NW) 23:03:59 435.215
ESTCUBE 1 23 Nov 23:01:12 23:05:44 82° 77° (ENE) 23:10:19 437.505/2401.250
BUGSAT 1 23 Nov 23:07:57 23:11:43 35° 98° (E) 23:15:25 437.445
POPSAT HIP 1 23 Nov 23:08:16 23:12:19 45° 99° (E) 23:16:20 437.405
VELOX 1 23 Nov 23:12:35 23:16:18 26° 264° (W) 23:20:03 145.980
ZACube-1 23 Nov 23:22:25 23:24:06 12° 267° (W) 23:25:47 437.345
HUMSAT D 23 Nov 23:22:53 23:25:51 19° 265° (W) 23:28:48 437.325/437.525
50 SAT 23 Nov 23:28:23 23:31:16 19° 265° (W) 23:34:10 437.505
ISS 23 Nov 23:33:44 23:36:31 26° 131° (SE) 23:39:18 145.825
AISAT 23 Nov 23:39:05 23:41:14 13° 267° (W) 23:43:23 437.250
POLYITAN 1 23 Nov 23:40:09 23:44:22 71° 284° (WNW) 23:48:34 437.675
QB50P2 23 Nov 23:43:13 23:47:25 65° 285° (WNW) 23:51:35 145.880/145.840
TIGRISAT 23 Nov 23:50:15 23:54:20 38° 287° (WNW) 23:58:30 435.000
DUCHIFAT 1 23 Nov 23:51:00 23:55:06 52° 286° (WNW) 23:59:11 145.980
TISAT 1 23 Nov 23:54:33 23:58:49 78° 76° (ENE) 00:03:06 437.305
SPROUT 23 Nov 23:56:36 00:00:54 70° 76° (ENE) 00:05:13 437.525
CUBEBUG 1 23 Nov 23:59:45 00:03:13 22° 265° (W) 00:06:41 437.445
UNISAT 6 24 Nov 00:02:47 00:06:33 28° 289° (WNW) 00:10:23 437.425
AUBIESAT-1 24 Nov 00:08:55 00:12:17 27° 65° (ENE) 00:15:55 437.475
NANOSAT C BR1 24 Nov 00:10:19 00:14:02 31° 288° (WNW) 00:17:44 145.865
M-CUBED/EXP-1 PRIME 24 Nov 00:12:12 00:15:43 33° 66° (ENE) 00:19:33 437.505
BEESAT 24 Nov 00:17:24 00:20:48 20° 67° (ENE) 00:24:13 436.000
QB50P1 24 Nov 00:20:08 00:23:32 24° 290° (WNW) 00:26:55 145.935-145.965
ANTELSAT 24 Nov 00:32:30 00:34:49 14° 293° (WNW) 00:37:09 437.575/2403.000
BUGSAT 1 24 Nov 00:44:31 00:46:54 15° 293° (WNW) 00:49:15 437.445
CUSAT 1 24 Nov 00:45:19 00:49:59 89° 264° (W) 00:56:18 437.405
POPSAT HIP 1 24 Nov 00:45:50 00:47:48 13° 294° (WNW) 00:49:46 437.405
RS-15 24 Nov 00:52:58 01:03:17 39° 47° (NE) 01:13:56 29.354- 29.394
DANDE 24 Nov 01:00:31 01:05:00 75° 262° (W) 01:11:07 436.750
Oscar 19 24 Nov 01:04:21 01:07:54 19° 94° (E) 01:11:26 437.125/150
ITUPSAT 1 24 Nov 01:09:56 01:14:42 70° 75° (ENE) 01:19:31 437.325
ISS 24 Nov 01:10:16 01:13:06 26° 326° (NW) 01:15:56 145.825
MaSat-1 24 Nov 01:14:48 01:16:31 18° 63° (ENE) 01:18:16 437.345
SWISSCUBE 24 Nov 01:21:51 01:26:38 78° 257° (WSW) 01:31:28 437.505
KKS-1 24 Nov 01:23:15 01:26:18 18° 68° (ENE) 01:29:21 437.445
JUGNU 24 Nov 01:27:31 01:31:00 16° 173° (S) 01:34:30 437.505
SRMSAT 24 Nov 01:35:18 01:37:09 11° 166° (SSE) 01:38:59 437.500
AUBIESAT-1 24 Nov 01:44:25 01:47:18 20° 262° (W) 01:50:24 437.475
M-CUBED/EXP-1 PRIME 24 Nov 01:48:27 01:50:56 16° 263° (W) 01:53:33 437.505
ITAMSAT 1 24 Nov 01:51:56 01:55:42 20° 94° (E) 01:59:26 435.822/435.867
BEESAT 24 Nov 01:53:55 01:58:21 38° 262° (W) 02:02:49 436.000
Gurwin Techsat 1B 24 Nov 02:10:31 02:13:59 17° 93° (E) 02:17:25 435.225
STARS 24 Nov 02:22:32 02:26:51 57° 74° (ENE) 02:31:11 437.465
HORYU 2 24 Nov 02:35:29 02:35:49 10° 92° (E) 02:36:10 437.375
YUBILEINY 24 Nov 02:41:17 02:49:43 53° 90° (E) 02:58:09 435.215
Oscar 19 24 Nov 02:42:30 02:47:23 44° 288° (WNW) 02:52:16 437.125/150
KKS-1 24 Nov 02:58:35 03:02:39 35° 262° (W) 03:06:45 437.445
RS-15 24 Nov 03:05:06 03:16:06 60° 248° (WSW) 03:27:37 29.354- 29.394
JUGNU 24 Nov 03:15:35 03:19:17 17° 184° (S) 03:23:00 437.505
SRMSAT 24 Nov 03:21:49 03:25:34 17° 176° (S) 03:29:18 437.500
SO-50 24 Nov 03:24:33 03:27:30 18° 109° (ESE) 03:30:31 436.795
ITAMSAT 1 24 Nov 03:30:28 03:35:18 41° 289° (WNW) 03:40:06 435.822/435.867
MOZHAYETS 4 24 Nov 03:47:54 03:50:52 17° 67° (ENE) 03:53:51
Gurwin Techsat 1B 24 Nov 03:49:04 03:54:10 49° 288° (WNW) 03:59:14 435.225
STARS 24 Nov 04:02:55 04:03:39 10° 268° (W) 04:04:23 437.465
HORYU 2 24 Nov 04:08:24 04:12:50 61° 285° (WNW) 04:17:15 437.375
AO-7 24 Nov 04:29:33 04:37:44 55° 103° (ESE) 04:45:51 29.400- 29.500
YUBILEINY 24 Nov 04:39:21 04:46:47 30° 288° (WNW) 04:54:15 435.215
JAS-2 24 Nov 04:46:50 04:52:13 24° 91° (E) 04:57:07 435.910
SO-50 24 Nov 05:03:25 05:07:40 41° 305° (NW) 05:12:03 436.795
JUGNU 24 Nov 05:05:44 05:07:33 11° 194° (SSW) 05:09:22 437.505
BEESAT 3 24 Nov 05:06:33 05:09:04 15° 49° (NE) 05:11:34 437.485
SRMSAT 24 Nov 05:10:28 05:14:01 16° 187° (S) 05:17:33 437.500
PCSat 24 Nov 05:12:59 05:17:48 32° 56° (NE) 05:22:36 145.827
BEESAT 2 24 Nov 05:19:46 05:22:46 19° 50° (NE) 05:25:45 435.950
MOZHAYETS 4 24 Nov 05:23:27 05:27:44 40° 262° (W) 05:32:05
CUBESAT XI-V 24 Nov 05:23:52 05:26:00 13° 65° (ENE) 05:28:08 437.345
AIST 2 24 Nov 05:44:28 05:47:23 18° 49° (NE) 05:50:17 435.215
PRISM 24 Nov 05:46:49 05:50:58 68° 75° (ENE) 05:55:11 437.425
Cubesat XI-IV 24 Nov 05:53:03 05:56:54 20° 94° (E) 06:00:43 437.490
ISS 24 Nov 06:05:12 06:06:52 13° 26° (NNE) 06:08:32 145.825
AO-7 24 Nov 06:23:02 06:30:03 31° 299° (WNW) 06:37:04 29.400- 29.500
O/OREOS (USA 219) 24 Nov 06:23:30 06:27:55 58° 107° (ESE) 06:32:19 437.305
JAS-2 24 Nov 06:30:47 06:37:38 51° 290° (WNW) 06:43:40 435.910
CUTE-I 24 Nov 06:34:03 06:39:13 51° 100° (E) 06:44:21 437.470
STRAND 1 24 Nov 06:36:52 06:42:00 81° 76° (ENE) 06:47:10 437.568
BEESAT 3 24 Nov 06:43:31 06:47:33 47° 245° (WSW) 06:51:31 437.485
PCSat 24 Nov 06:56:25 07:01:07 31° 252° (WSW) 07:05:48 145.827
BEESAT 2 24 Nov 06:57:19 07:01:11 37° 246° (WSW) 07:05:00 435.950
CUBESAT XI-V 24 Nov 06:58:16 07:02:54 58° 260° (W) 07:07:34 437.345
AIST 2 24 Nov 07:22:09 07:26:13 42° 246° (WSW) 07:30:12 435.215
Cubesat XI-IV 24 Nov 07:32:07 07:37:08 43° 289° (WNW) 07:42:06 437.490
AIST 1 24 Nov 07:36:03 07:40:27 87° 82° (E) 07:44:48
ISS 24 Nov 07:40:36 07:43:55 86° 222° (SW) 07:47:13 145.825
O/OREOS (USA 219) 24 Nov 08:05:49 08:07:40 12° 303° (WNW) 08:09:32 437.305
CUTE-I 24 Nov 08:15:21 08:18:50 18° 295° (WNW) 08:22:18 437.470
CUTE 1.7 & AOD 2 24 Nov 08:20:55 08:21:51 11° 92° (E) 08:22:48 437.475
GONETS M04 24 Nov 08:30:55 08:39:27 59° 91° (E) 08:48:03
GOMX 1 24 Nov 08:45:57 08:48:11 14° 94° (E) 08:50:27 467.674
SEEDS 24 Nov 08:54:19 08:57:48 24° 96° (E) 09:01:17 437.485
BRITE-PL 24 Nov 09:02:55 09:06:39 32° 98° (E) 09:10:25 437.365/2234.400
HO-68 24 Nov 09:02:58 09:09:49 46° 100° (E) 09:16:36 435.675
DX 1 24 Nov 09:11:09 09:12:28 11° 92° (E) 09:13:48 434.975-435.025
AAUSAT CUBESAT 2 24 Nov 09:15:04 09:18:51 31° 97° (E) 09:22:36 437.432
CANX-2 24 Nov 09:18:51 09:23:07 63° 101° (E) 09:27:22 2200.000
UNISAT 6 24 Nov 09:24:19 09:26:31 14° 67° (ENE) 09:28:43 437.425
COMPASS 1 24 Nov 09:28:38 09:32:48 53° 100° (E) 09:36:57 437.405
DELFI C3 24 Nov 09:31:08 09:34:07 19° 95° (E) 09:37:04 145.870
QB50P1 24 Nov 09:36:11 09:38:09 13° 66° (ENE) 09:40:06 145.935-145.965
ZACube-1 24 Nov 09:37:56 09:38:54 11° 92° (E) 09:39:53 437.345
DOVE 4 24 Nov 09:49:26 09:53:34 62° 101° (E) 09:57:49 437.250
ANTELSAT 24 Nov 09:51:10 09:54:50 28° 71° (ENE) 09:58:29 437.575/2403.000
CUTE 1.7 & AOD 2 24 Nov 09:53:52 09:58:03 53° 285° (WNW) 10:02:13 437.475
BUGSAT 1 24 Nov 09:56:14 09:59:11 19° 68° (ENE) 10:02:08 437.445
AISAT 24 Nov 09:56:54 09:58:20 11° 92° (E) 09:59:46 437.250
POPSAT HIP 1 24 Nov 09:59:04 10:02:29 24° 70° (ENE) 10:05:54 437.405
UKube-1 24 Nov 10:11:07 10:15:25 60° 101° (ESE) 10:19:40 .
FUNcube-1 24 Nov 10:11:09 10:14:48 28° 97° (E) 10:18:30 145.935
GOMX 1 24 Nov 10:22:38 10:26:27 36° 287° (WNW) 10:30:20 467.674
Oscar 11 24 Nov 10:23:54 10:28:15 80° 283° (WNW) 10:32:36 145.826/435.025
CUBEBUG 2 24 Nov 10:27:24 10:31:36 63° 101° (E) 10:35:55 437.445
GONETS M04 24 Nov 10:29:35 10:36:42 27° 289° (WNW) 10:43:54
SEEDS 24 Nov 10:30:06 10:33:31 24° 290° (WNW) 10:36:55 437.485
POLYITAN 1 24 Nov 10:30:30 10:34:42 58° 75° (ENE) 10:38:53 437.675
UWE-3 24 Nov 10:31:48 10:36:00 61° 101° (E) 10:40:17 435.000/436.395/437.385
QB50P2 24 Nov 10:33:18 10:37:31 63° 75° (ENE) 10:41:44 145.880/145.840
CINEMA 3 24 Nov 10:40:06 10:44:12 54° 285° (WNW) 10:48:26 145.822/145.860
DUCHIFAT 1 24 Nov 10:40:36 10:44:52 76° 76° (ENE) 10:49:07 145.980
BRITE-PL 24 Nov 10:42:23 10:44:56 16° 292° (WNW) 10:47:30 437.365/2234.400
DX 1 24 Nov 10:44:46 10:48:59 51° 286° (WNW) 10:53:10 434.975-435.025
TIGRISAT 24 Nov 10:46:07 10:50:21 62° 259° (W) 10:54:34 435.000
HO-68 24 Nov 10:51:09 10:57:12 31° 296° (WNW) 11:03:14 435.675
AAUSAT CUBESAT 2 24 Nov 10:51:22 10:54:17 18° 291° (WNW) 10:57:12 437.432
ESTCUBE 1 24 Nov 10:58:07 11:01:38 22° 95° (E) 11:05:07 437.505/2401.250
UNISAT 6 24 Nov 10:58:52 11:02:56 42° 261° (W) 11:07:00 437.425
NANOSAT C BR1 24 Nov 10:59:45 11:03:58 62° 259° (W) 11:08:11 145.865
VELOX 1 24 Nov 11:05:47 11:10:13 77° 102° (ESE) 11:14:37 145.980
DELFI C3 24 Nov 11:05:51 11:09:24 28° 289° (WNW) 11:12:56 145.870
COMPASS 1 24 Nov 11:06:39 11:08:02 11° 294° (WNW) 11:09:25 437.405
HUMSAT D 24 Nov 11:09:12 11:13:23 86° 102° (ESE) 11:17:36 437.325/437.525
QB50P1 24 Nov 11:09:30 11:13:37 46° 260° (W) 11:17:44 145.935-145.965
50 SAT 24 Nov 11:11:07 11:15:11 74° 102° (ESE) 11:19:15 437.505
ZACube-1 24 Nov 11:11:25 11:15:31 52° 285° (WNW) 11:19:42 437.345
ANTELSAT 24 Nov 11:28:30 11:31:38 20° 265° (W) 11:34:46 437.575/2403.000
